Location: La Brionne
(46.1728°N, 1.7849°E)
Time: 22:09:21
(UTC+00:00)

Cosmos 1867 - Pass Details

Date: 16 June 2021
Orbit: 773 x 803 km, 65.0° (Epoch: 02 August)

Event Time Altitude Azimuth Distance (km) Brightness Sun altitude
Rises 23:23:33 0° 320° (NW) 3,321 7.8 -20.1°
Reaches altitude 10° 23:26:02 10° 316° (NW) 2,387 6.8 -20.2°
Maximum altitude 23:31:21 52° 241° (WSW) 990 3.9 -20.3°
Enters shadow 23:32:53 40° 193° (SSW) 1,171 4.0 -20.3°
